Regional Weather Roundup
Issued by NWS Jackson, KY

Home | Current Version | Previous Version | Graphics & Text | Print | Product List | Glossary On
Versions: 1 2 3 4 5 6 7 8 9 10 11 12 13 14 15 16 17 18 19 20 21 22 23 24 25 26 27 28 29 30 31 32 33 34 35 36 37 38 39 40 41 42 43 44 45 46 47 48 49 50
000
ASUS43 KJKL 051510
RWRJKL

EAST KENTUCKY HOURLY WEATHER ROUNDUP
NATIONAL WEATHER SERVICE JACKSON KY
1100 AM EDT TUE MAY 05 2015

NOTE: "FAIR" INDICATES FEW OR NO CLOUDS BELOW 12,000 FEET WITH
NO SIGNIFICANT WEATHER AND/OR OBSTRUCTIONS TO VISIBILITY.

* THESE REPORTS ARE NOT UNDER NWS QUALITY CONTROL AND MAY NOT
  REPORT WEATHER SUCH AS PRECIPITATION AND FOG.

KYZ079-080-083-085-087-088-110-112-115-119-120-051600
...EASTERN KENTUCKY...

CITY           SKY/WX    TMP DP  RH WIND       PRES   REMARKS
JACKSON        SUNNY     74  56  53 VRB3      30.35R
LONDON         SUNNY     76  51  41 W5        30.34S
SOMERSET*      SUNNY     73  54  49 W6        30.34S
MONTICELLO*    SUNNY     78  57  48 CALM      30.36R
MIDDLESBORO*   SUNNY     70  57  62 CALM      30.36S
HARLAN APT*    SUNNY     72  54  53 CALM      30.36F
HAZARD APT*    MOSUNNY   75  54  46 W5        30.35S
BLACK MTN*       N/A     63  50  63 VRB2        N/A
PIKEVILLE APT* SUNNY     72  55  56 W5        30.35S
BIG SANDY*     PTSUNNY   72  55  56 CALM      30.34S
MOREHEAD APT*  SUNNY     75  57  53 S6        30.33S
$$

KYZ035-036-041-042-044-050-067-078-099-051600
...CENTRAL KENTUCKY...

CITY           SKY/WX    TMP DP  RH WIND       PRES   REMARKS
MT STERLING*   SUNNY     75  55  50 SW7       30.33S
FLEMING/MASON* SUNNY     77  59  53 W5        30.31S
DANVILLE*      SUNNY     75  59  57 S6        30.33S
RICHMOND*      SUNNY     73  54  49 SW8       30.32S
LEXINGTON      SUNNY     76  56  49 SW9       30.31S
FRANKFORT      SUNNY     77  55  46 SW9       30.28S
$$

KYZ091>093-OHZ055-061-077-WVZ005-015-034-035-042-051600
...SOUTHERN OHIO/WEST VIRGINIA...

CITY           SKY/WX    TMP DP  RH WIND       PRES   REMARKS
COVINGTON      MOSUNNY   76  56  49 W8        30.28R
COLUMBUS       CLOUDY    68  61  78 CALM      30.29S
DAYTON         MOSUNNY   72  62  71 SE12      30.28S
WILMINGTON     CLOUDY    73  57  57 SW7       30.28S
HUNTINGTON     SUNNY     75  55  49 CALM      30.30S
CHARLESTON     MOSUNNY   74  54  49 SW5       30.32R
PINEVILLE*     SUNNY     75  53  46 MISG      30.41S
BECKLEY        SUNNY     73  50  44 NW6       30.37S
BLUEFIELD      SUNNY     74  47  38 W8        30.40S
$$

VAZ002-007-008-TNZ017-027-036-066-071-051600
...SOUTHWEST VIRGINIA/EAST TENNESSEE...

CITY           SKY/WX    TMP DP  RH WIND       PRES   REMARKS
WISE*          SUNNY     72  48  43 CALM      30.40F
JONESVILLE*    SUNNY     72  52  49 SW3       30.38S
ABINGDON*      SUNNY     72  54  53 W5        30.39S
BRISTOL        SUNNY     74  53  48 CALM      30.37S
KNOXVILLE      MOSUNNY   71  55  56 CALM      30.34F
OAK RIDGE      SUNNY     74  54  49 S7        30.36S
CROSSVILLE     SUNNY     73  51  46 CALM      30.36F
NASHVILLE      SUNNY     77  56  48 S3        30.30F
$$

...KEY TO REMARKS...
VSB - VISIBILITY IN MILES
WCI - WIND CHILL INDEX
HX  - HEAT INDEX

$$



USA.gov is the U.S. government's official web portal to all federal, state and local government web resources and services.